This is the latest recevied weather packets stored in our database for station/object VR2HK-13. If no packets are shown the sender has not sent any weather packets the latest 10 day(s).
| Time | Temp. | Humidity | Pressure | Rain* | Wind** | Luminosity | Snow |
|---|---|---|---|---|---|---|---|
| 1777677719 | 23.89° C | 82% | 1013 hPa | 10.16 mm | - | - | - |
| 1777677558 | 23.89° C | 82% | 1013 hPa | 8.89 mm | - | - | - |
| 1777677409 | 23.89° C | 82% | 1012.9 hPa | 8.89 mm | - | - | - |
| 1777677258 | 23.89° C | 83% | 1012.9 hPa | 8.64 mm | - | - | - |
| 1777677100 | 23.89° C | 83% | 1013 hPa | 7.37 mm | - | - | - |
| 1777676958 | 23.89° C | 83% | 1013 hPa | 7.37 mm | - | - | - |
| 1777676789 | 23.89° C | 83% | 1012.8 hPa | 6.1 mm | - | - | - |
| 1777676658 | 23.89° C | 83% | 1012.8 hPa | 6.1 mm | - | - | - |
| 1777676480 | 23.89° C | 83% | 1012.7 hPa | 5.08 mm | - | - | - |
| 1777676358 | 23.89° C | 83% | 1012.7 hPa | 5.08 mm | - | - | - |
| 1777676169 | 23.33° C | 83% | 1012.8 hPa | 4.57 mm | - | - | - |
| 1777676058 | 23.33° C | 83% | 1012.7 hPa | 4.32 mm | - | - | - |
| 1777675859 | 23.33° C | 83% | 1012.8 hPa | 3.81 mm | - | - | - |
| 1777675758 | 23.33° C | 83% | 1012.7 hPa | 3.81 mm | - | - | - |
| 1777675549 | 23.33° C | 83% | 1012.7 hPa | 4.06 mm | - | - | - |
| 1777675458 | 23.33° C | 83% | 1012.7 hPa | 3.81 mm | - | - | - |
| 1777675239 | 23.33° C | 83% | 1012.6 hPa | 3.05 mm | - | - | - |
| 1777675157 | 23.33° C | 83% | 1012.7 hPa | 3.05 mm | - | - | - |
| 1777674929 | 23.33° C | 83% | 1012.5 hPa | 2.79 mm | - | - | - |
| 1777674858 | 23.33° C | 83% | 1012.5 hPa | 2.54 mm | - | - | - |
| 1777674620 | 23.33° C | 83% | 1012.5 hPa | 2.54 mm | - | - | - |
| 1777674559 | 23.33° C | 83% | 1012.5 hPa | 2.54 mm | - | - | - |
| 1777674258 | 23.33° C | 83% | 1012.5 hPa | 3.05 mm | - | - | - |
| 1777674000 | 23.33° C | 83% | 1012.5 hPa | 3.56 mm | - | - | - |
| 1777673958 | 23.33° C | 83% | 1012.6 hPa | 3.56 mm | - | - | - |
* Rain latest hour (hover to see other rain measurements)
** Current wind speed in m/s (hover to see current wind gust speed)